Time,TemperatureF,DewpointF,PressureIn,WindDirection,WindDirectionDegrees,WindSpeedMPH,WindSpeedGustMPH,Humidity,HourlyPrecipIn,Conditions,Clouds,dailyrainin,SoftwareType,DateUTC
2013-04-24 00:01:00,36.6,33.7,30.27,West,271,0.0,1.0,89,0.00,,,0.00,Weather View 32 v70,2013-04-24 04:01:00,
2013-04-24 00:06:00,36.8,33.9,30.27,West,275,1.0,1.0,89,0.00,,,0.00,Weather View 32 v70,2013-04-24 04:06:00,
2013-04-24 00:11:00,36.8,33.9,30.28,SSW,199,0.0,1.0,89,0.00,,,0.00,Weather View 32 v70,2013-04-24 04:11:00,
2013-04-24 00:16:00,36.6,33.7,30.27,NW,307,0.0,1.0,89,0.00,,,0.00,Weather View 32 v70,2013-04-24 04:16:00,
2013-04-24 00:21:00,36.5,33.6,30.27,South,173,0.0,1.0,89,0.00,,,0.00,Weather View 32 v70,2013-04-24 04:21:00,
2013-04-24 00:26:00,36.3,32.8,30.27,WNW,298,0.0,1.0,87,0.00,,,0.00,Weather View 32 v70,2013-04-24 04:26:00,
2013-04-24 00:31:00,36.5,33.6,30.27,NNW,340,0.0,1.0,89,0.00,,,0.00,Weather View 32 v70,2013-04-24 04:31:00,
2013-04-24 00:36:00,36.3,32.8,30.27,SW,236,0.0,1.0,87,0.00,,,0.00,Weather View 32 v70,2013-04-24 04:36:00,
2013-04-24 00:41:00,36.1,32.6,30.26,WSW,252,0.0,1.0,87,0.00,,,0.00,Weather View 32 v70,2013-04-24 04:41:00,
2013-04-24 00:46:00,35.9,32.4,30.27,WNW,285,0.0,1.0,87,0.00,,,0.00,Weather View 32 v70,2013-04-24 04:46:00,
2013-04-24 00:51:00,35.4,31.9,30.26,SW,227,0.0,1.0,87,0.00,,,0.00,Weather View 32 v70,2013-04-24 04:51:00,
2013-04-24 00:56:00,34.7,31.2,30.26,WNW,294,0.0,1.0,87,0.00,,,0.00,Weather View 32 v70,2013-04-24 04:56:00,
2013-04-24 01:01:00,35.2,31.7,30.25,NW,316,1.0,1.0,87,0.00,,,0.00,Weather View 32 v70,2013-04-24 05:01:00,
2013-04-24 01:06:00,34.8,31.6,30.25,ESE,120,0.0,1.0,88,0.00,,,0.00,Weather View 32 v70,2013-04-24 05:06:00,
2013-04-24 01:11:00,34.7,31.5,30.25,WNW,303,1.0,1.0,88,0.00,,,0.00,Weather View 32 v70,2013-04-24 05:11:00,
2013-04-24 01:16:00,34.5,31.3,30.24,South,177,0.0,1.0,88,0.00,,,0.00,Weather View 32 v70,2013-04-24 05:16:00,
2013-04-24 01:21:00,34.1,30.9,30.24,West,279,1.0,1.0,88,0.00,,,0.00,Weather View 32 v70,2013-04-24 05:21:00,
2013-04-24 01:26:00,34.5,31.3,30.24,WSW,241,0.0,1.0,88,0.00,,,0.00,Weather View 32 v70,2013-04-24 05:26:00,
2013-04-24 01:31:00,33.9,30.7,30.23,WNW,290,0.0,1.0,88,0.00,,,0.00,Weather View 32 v70,2013-04-24 05:31:00,
2013-04-24 01:36:00,33.8,30.6,30.23,NNE,14,0.0,1.0,88,0.00,,,0.00,Weather View 32 v70,2013-04-24 05:36:00,
2013-04-24 01:41:00,33.8,30.6,30.23,NW,307,0.0,1.0,88,0.00,,,0.00,Weather View 32 v70,2013-04-24 05:41:00,
2013-04-24 01:46:00,33.8,30.6,30.23,SW,236,1.0,1.0,88,0.00,,,0.00,Weather View 32 v70,2013-04-24 05:46:00,
2013-04-24 01:51:00,33.4,30.5,30.23,West,273,0.0,1.0,89,0.00,,,0.00,Weather View 32 v70,2013-04-24 05:51:00,
2013-04-24 01:56:00,33.4,30.2,30.23,West,260,1.0,1.0,88,0.00,,,0.00,Weather View 32 v70,2013-04-24 05:56:00,
2013-04-24 02:01:00,33.0,30.1,30.24,WSW,240,1.0,1.0,89,0.00,,,0.00,Weather View 32 v70,2013-04-24 06:01:00,
2013-04-24 02:06:00,33.0,30.1,30.24,WSW,248,1.0,2.0,89,0.00,,,0.00,Weather View 32 v70,2013-04-24 06:06:00,
2013-04-24 02:11:00,33.4,30.5,30.23,NW,326,1.0,2.0,89,0.00,,,0.00,Weather View 32 v70,2013-04-24 06:11:00,
2013-04-24 02:16:00,33.0,30.1,30.23,NE,54,0.0,2.0,89,0.00,,,0.00,Weather View 32 v70,2013-04-24 06:16:00,
2013-04-24 02:21:00,33.4,30.5,30.23,East,92,1.0,2.0,89,0.00,,,0.00,Weather View 32 v70,2013-04-24 06:21:00,
2013-04-24 02:26:00,33.4,30.5,30.23,ENE,77,0.0,2.0,89,0.00,,,0.00,Weather View 32 v70,2013-04-24 06:26:00,
2013-04-24 02:31:00,33.2,30.3,30.23,WNW,300,0.0,2.0,89,0.00,,,0.00,Weather View 32 v70,2013-04-24 06:31:00,
2013-04-24 02:36:00,33.2,30.6,30.23,WSW,247,0.0,2.0,90,0.00,,,0.00,Weather View 32 v70,2013-04-24 06:36:00,
2013-04-24 02:41:00,33.0,30.4,30.23,NW,309,1.0,2.0,90,0.00,,,0.00,Weather View 32 v70,2013-04-24 06:41:00,
2013-04-24 02:46:00,33.2,30.6,30.23,West,267,0.0,2.0,90,0.00,,,0.00,Weather View 32 v70,2013-04-24 06:46:00,
2013-04-24 02:51:00,32.7,30.1,30.23,WNW,290,0.0,2.0,90,0.00,,,0.00,Weather View 32 v70,2013-04-24 06:51:00,
2013-04-24 02:56:00,32.5,29.9,30.23,NNE,33,0.0,2.0,90,0.00,,,0.00,Weather View 32 v70,2013-04-24 06:56:00,
2013-04-24 03:01:00,32.1,29.5,30.23,NNW,329,1.0,2.0,90,0.00,,,0.00,Weather View 32 v70,2013-04-24 07:01:00,
2013-04-24 03:06:00,32.5,29.9,30.23,NW,308,1.0,1.0,90,0.00,,,0.00,Weather View 32 v70,2013-04-24 07:06:00,
2013-04-24 03:11:00,32.3,29.7,30.22,NW,308,0.0,1.0,90,0.00,,,0.00,Weather View 32 v70,2013-04-24 07:11:00,
2013-04-24 03:16:00,32.1,29.5,30.21,WNW,288,0.0,1.0,90,0.00,,,0.00,Weather View 32 v70,2013-04-24 07:16:00,
2013-04-24 03:21:00,31.9,29.3,30.22,NE,46,0.0,1.0,90,0.00,,,0.00,Weather View 32 v70,2013-04-24 07:21:00,
2013-04-24 03:26:00,31.9,29.3,30.22,NNW,336,0.0,1.0,90,0.00,,,0.00,Weather View 32 v70,2013-04-24 07:26:00,
2013-04-24 03:31:00,31.7,29.1,30.21,ENE,58,0.0,1.0,90,0.00,,,0.00,Weather View 32 v70,2013-04-24 07:31:00,
2013-04-24 03:36:00,32.0,29.4,30.21,West,272,0.0,1.0,90,0.00,,,0.00,Weather View 32 v70,2013-04-24 07:36:00,
2013-04-24 03:41:00,31.9,29.3,30.21,WSW,251,0.0,1.0,90,0.00,,,0.00,Weather View 32 v70,2013-04-24 07:41:00,
2013-04-24 03:46:00,31.5,28.9,30.21,NNE,22,0.0,1.0,90,0.00,,,0.00,Weather View 32 v70,2013-04-24 07:46:00,
2013-04-24 03:51:00,31.5,28.9,30.20,WNW,285,0.0,1.0,90,0.00,,,0.00,Weather View 32 v70,2013-04-24 07:51:00,
2013-04-24 03:56:00,31.5,28.9,30.21,NW,308,0.0,1.0,90,0.00,,,0.00,Weather View 32 v70,2013-04-24 07:56:00,
2013-04-24 04:01:00,31.5,28.9,30.21,WNW,287,0.0,1.0,90,0.00,,,0.00,Weather View 32 v70,2013-04-24 08:01:00,
2013-04-24 04:06:00,31.3,28.7,30.21,WNW,288,0.0,1.0,90,0.00,,,0.00,Weather View 32 v70,2013-04-24 08:06:00,
2013-04-24 04:11:00,31.3,28.7,30.21,West,275,0.0,1.0,90,0.00,,,0.00,Weather View 32 v70,2013-04-24 08:11:00,
2013-04-24 04:16:00,31.1,28.5,30.20,West,266,0.0,1.0,90,0.00,,,0.00,Weather View 32 v70,2013-04-24 08:16:00,
2013-04-24 04:21:00,31.1,28.5,30.20,WNW,282,0.0,1.0,90,0.00,,,0.00,Weather View 32 v70,2013-04-24 08:21:00,
2013-04-24 04:26:00,31.0,28.4,30.21,West,265,0.0,1.0,90,0.00,,,0.00,Weather View 32 v70,2013-04-24 08:26:00,
2013-04-24 04:31:00,31.1,28.5,30.20,NW,312,0.0,1.0,90,0.00,,,0.00,Weather View 32 v70,2013-04-24 08:31:00,
2013-04-24 04:36:00,30.8,28.2,30.21,NW,317,0.0,1.0,90,0.00,,,0.00,Weather View 32 v70,2013-04-24 08:36:00,
2013-04-24 04:41:00,30.6,28.0,30.21,NW,317,0.0,0.0,90,0.00,,,0.00,Weather View 32 v70,2013-04-24 08:41:00,
2013-04-24 04:46:00,30.4,27.8,30.20,NW,316,0.0,0.0,90,0.00,,,0.00,Weather View 32 v70,2013-04-24 08:46:00,
2013-04-24 04:51:00,30.4,27.8,30.20,West,264,1.0,2.0,90,0.00,,,0.00,Weather View 32 v70,2013-04-24 08:51:00,
2013-04-24 04:56:00,30.8,28.2,30.21,SW,231,0.0,2.0,90,0.00,,,0.00,Weather View 32 v70,2013-04-24 08:56:00,
2013-04-24 05:01:00,30.8,28.2,30.19,West,268,0.0,2.0,90,0.00,,,0.00,Weather View 32 v70,2013-04-24 09:01:00,
2013-04-24 05:06:00,30.6,28.0,30.20,WNW,301,0.0,2.0,90,0.00,,,0.00,Weather View 32 v70,2013-04-24 09:06:00,
2013-04-24 05:11:00,30.6,28.0,30.20,East,101,0.0,2.0,90,0.00,,,0.00,Weather View 32 v70,2013-04-24 09:11:00,
2013-04-24 05:16:00,30.4,27.8,30.20,SSW,212,0.0,2.0,90,0.00,,,0.00,Weather View 32 v70,2013-04-24 09:16:00,
2013-04-24 05:21:00,30.6,28.0,30.19,NNE,12,0.0,2.0,90,0.00,,,0.00,Weather View 32 v70,2013-04-24 09:21:00,
2013-04-24 05:26:00,30.8,28.2,30.20,West,273,0.0,2.0,90,0.00,,,0.00,Weather View 32 v70,2013-04-24 09:26:00,
2013-04-24 05:31:00,30.2,27.6,30.21,WSW,253,0.0,2.0,90,0.00,,,0.00,Weather View 32 v70,2013-04-24 09:31:00,
2013-04-24 05:36:00,30.4,27.8,30.21,WSW,241,0.0,2.0,90,0.00,,,0.00,Weather View 32 v70,2013-04-24 09:36:00,
2013-04-24 05:41:00,30.2,27.6,30.22,NNW,339,0.0,2.0,90,0.00,,,0.00,Weather View 32 v70,2013-04-24 09:41:00,
2013-04-24 05:46:00,29.9,27.3,30.22,NNW,340,0.0,2.0,90,0.00,,,0.00,Weather View 32 v70,2013-04-24 09:46:00,
2013-04-24 05:51:00,29.9,27.3,30.22,SSW,199,0.0,2.0,90,0.00,,,0.00,Weather View 32 v70,2013-04-24 09:51:00,
2013-04-24 05:56:00,29.7,27.1,30.22,NNE,15,0.0,2.0,90,0.00,,,0.00,Weather View 32 v70,2013-04-24 09:56:00,
2013-04-24 06:01:00,30.1,27.5,30.21,WNW,283,0.0,1.0,90,0.00,,,0.00,Weather View 32 v70,2013-04-24 10:01:00,
2013-04-24 06:06:00,30.1,27.5,30.21,NNW,348,0.0,1.0,90,0.00,,,0.00,Weather View 32 v70,2013-04-24 10:06:00,
2013-04-24 06:11:00,29.9,27.3,30.22,WSW,252,0.0,1.0,90,0.00,,,0.00,Weather View 32 v70,2013-04-24 10:11:00,
2013-04-24 06:16:00,30.1,27.5,30.22,WNW,300,0.0,1.0,90,0.00,,,0.00,Weather View 32 v70,2013-04-24 10:16:00,
2013-04-24 06:21:00,30.1,27.5,30.21,NW,310,0.0,1.0,90,0.00,,,0.00,Weather View 32 v70,2013-04-24 10:21:00,
2013-04-24 06:26:00,30.1,27.5,30.21,NW,305,0.0,1.0,90,0.00,,,0.00,Weather View 32 v70,2013-04-24 10:26:00,
2013-04-24 06:31:00,30.4,27.8,30.22,West,281,0.0,1.0,90,0.00,,,0.00,Weather View 32 v70,2013-04-24 10:31:00,
2013-04-24 06:36:00,30.4,27.8,30.21,NE,45,0.0,1.0,90,0.00,,,0.00,Weather View 32 v70,2013-04-24 10:36:00,
2013-04-24 06:41:00,30.4,27.8,30.22,WSW,243,0.0,1.0,90,0.00,,,0.00,Weather View 32 v70,2013-04-24 10:41:00,
2013-04-24 06:46:00,31.3,28.7,30.22,SSE,160,0.0,1.0,90,0.00,,,0.00,Weather View 32 v70,2013-04-24 10:46:00,
2013-04-24 06:51:00,31.3,28.7,30.22,NW,309,0.0,1.0,90,0.00,,,0.00,Weather View 32 v70,2013-04-24 10:51:00,
2013-04-24 06:56:00,32.0,29.4,30.21,ENE,61,0.0,1.0,90,0.00,,,0.00,Weather View 32 v70,2013-04-24 10:56:00,
2013-04-24 07:01:00,32.5,29.9,30.21,NE,56,0.0,1.0,90,0.00,,,0.00,Weather View 32 v70,2013-04-24 11:01:00,
2013-04-24 07:06:00,33.4,30.8,30.21,NNE,18,0.0,1.0,90,0.00,,,0.00,Weather View 32 v70,2013-04-24 11:06:00,
2013-04-24 07:11:00,34.1,31.5,30.21,North,5,0.0,1.0,90,0.00,,,0.00,Weather View 32 v70,2013-04-24 11:11:00,
2013-04-24 07:16:00,36.3,33.6,30.21,SW,233,0.0,1.0,90,0.00,,,0.00,Weather View 32 v70,2013-04-24 11:16:00,
2013-04-24 07:21:00,36.6,34.5,30.20,SE,137,0.0,1.0,92,0.00,,,0.00,Weather View 32 v70,2013-04-24 11:21:00,
2013-04-24 07:26:00,37.0,34.9,30.20,ENE,77,1.0,1.0,92,0.00,,,0.00,Weather View 32 v70,2013-04-24 11:26:00,
2013-04-24 07:31:00,37.5,35.4,30.19,North,2,0.0,1.0,92,0.00,,,0.00,Weather View 32 v70,2013-04-24 11:31:00,
2013-04-24 07:36:00,38.4,36.3,30.19,East,85,0.0,1.0,92,0.00,,,0.00,Weather View 32 v70,2013-04-24 11:36:00,
2013-04-24 07:41:00,40.1,38.0,30.18,SSE,155,0.0,1.0,92,0.00,,,0.00,Weather View 32 v70,2013-04-24 11:41:00,
2013-04-24 07:46:00,41.9,39.7,30.17,ENE,72,3.0,3.0,92,0.00,,,0.00,Weather View 32 v70,2013-04-24 11:46:00,
2013-04-24 07:51:00,42.4,40.0,30.16,East,89,1.0,3.0,91,0.00,,,0.00,Weather View 32 v70,2013-04-24 11:51:00,
2013-04-24 07:56:00,42.8,39.8,30.16,NNW,334,1.0,3.0,89,0.00,,,0.00,Weather View 32 v70,2013-04-24 11:56:00,
2013-04-24 08:01:00,42.9,38.1,30.16,North,355,1.0,3.0,83,0.00,,,0.00,Weather View 32 v70,2013-04-24 12:01:00,
2013-04-24 08:06:00,43.1,37.7,30.15,ENE,58,2.0,3.0,81,0.00,,,0.00,Weather View 32 v70,2013-04-24 12:06:00,
2013-04-24 08:11:00,43.5,37.4,30.15,NNW,335,1.0,3.0,79,0.00,,,0.00,Weather View 32 v70,2013-04-24 12:11:00,
2013-04-24 08:16:00,44.4,38.0,30.14,North,7,0.0,3.0,78,0.00,,,0.00,Weather View 32 v70,2013-04-24 12:16:00,
2013-04-24 08:22:00,45.5,38.4,30.14,East,79,1.0,3.0,76,0.00,,,0.00,Weather View 32 v70,2013-04-24 12:22:00,
2013-04-24 08:27:00,46.5,38.6,30.13,North,5,1.0,3.0,74,0.00,,,0.00,Weather View 32 v70,2013-04-24 12:27:00,
2013-04-24 08:32:00,47.3,39.1,30.12,ENE,61,1.0,3.0,73,0.00,,,0.00,Weather View 32 v70,2013-04-24 12:32:00,
2013-04-24 08:37:00,47.6,39.0,30.12,NNW,348,2.0,3.0,72,0.00,,,0.00,Weather View 32 v70,2013-04-24 12:37:00,
2013-04-24 08:42:00,47.8,38.5,30.11,NNE,25,2.0,3.0,70,0.00,,,0.00,Weather View 32 v70,2013-04-24 12:42:00,
2013-04-24 08:47:00,48.3,39.0,30.11,NNE,31,2.0,3.0,70,0.00,,,0.00,Weather View 32 v70,2013-04-24 12:47:00,
2013-04-24 08:51:00,49.2,39.4,30.11,ESE,104,2.0,3.0,69,0.00,,,0.00,Weather View 32 v70,2013-04-24 12:51:00,
2013-04-24 08:57:00,49.6,39.1,30.10,SE,124,2.0,3.0,67,0.00,,,0.00,Weather View 32 v70,2013-04-24 12:57:00,
2013-04-24 09:02:00,50.3,39.7,30.09,SSE,152,3.0,3.0,67,0.00,,,0.00,Weather View 32 v70,2013-04-24 13:02:00,
2013-04-24 09:07:00,50.5,39.5,30.09,NE,48,1.0,3.0,66,0.00,,,0.00,Weather View 32 v70,2013-04-24 13:07:00,
2013-04-24 09:12:00,51.0,39.6,30.08,ENE,73,3.0,4.0,65,0.00,,,0.00,Weather View 32 v70,2013-04-24 13:12:00,
2013-04-24 09:17:00,51.4,39.6,30.08,NNW,348,2.0,5.0,64,0.00,,,0.00,Weather View 32 v70,2013-04-24 13:17:00,
2013-04-24 09:22:00,51.9,39.7,30.07,ENE,71,4.0,5.0,63,0.00,,,0.00,Weather View 32 v70,2013-04-24 13:22:00,
2013-04-24 09:27:00,52.3,40.1,30.07,East,90,1.0,5.0,63,0.00,,,0.00,Weather View 32 v70,2013-04-24 13:27:00,
2013-04-24 09:32:00,51.9,40.5,30.07,East,79,2.0,5.0,65,0.00,,,0.00,Weather View 32 v70,2013-04-24 13:32:00,
2013-04-24 09:37:00,52.3,40.1,30.07,ESE,118,1.0,5.0,63,0.00,,,0.00,Weather View 32 v70,2013-04-24 13:37:00,
2013-04-24 09:42:00,52.8,40.1,30.07,ENE,76,3.0,5.0,62,0.00,,,0.00,Weather View 32 v70,2013-04-24 13:42:00,
2013-04-24 09:47:00,53.0,41.1,30.06,NE,54,2.0,5.0,64,0.00,,,0.00,Weather View 32 v70,2013-04-24 13:47:00,
2013-04-24 09:52:00,53.4,41.5,30.06,SE,131,6.0,6.0,64,0.00,,,0.00,Weather View 32 v70,2013-04-24 13:52:00,
2013-04-24 09:57:00,53.7,41.8,30.06,East,96,2.0,7.0,64,0.00,,,0.00,Weather View 32 v70,2013-04-24 13:57:00,
2013-04-24 10:02:00,53.9,40.3,30.05,ENE,59,4.0,7.0,60,0.00,,,0.00,Weather View 32 v70,2013-04-24 14:02:00,
2013-04-24 10:07:00,54.1,40.5,30.05,SSW,206,1.0,7.0,60,0.00,,,0.00,Weather View 32 v70,2013-04-24 14:07:00,
2013-04-24 10:12:00,53.9,41.6,30.05,SE,132,5.0,8.0,63,0.00,,,0.00,Weather View 32 v70,2013-04-24 14:12:00,
2013-04-24 10:17:00,53.7,41.0,30.05,NE,42,3.0,9.0,62,0.00,,,0.00,Weather View 32 v70,2013-04-24 14:17:00,
2013-04-24 10:23:00,53.9,40.7,30.05,SE,138,5.0,9.0,61,0.00,,,0.00,Weather View 32 v70,2013-04-24 14:23:00,
2013-04-24 10:28:00,54.1,40.5,30.04,SE,124,5.0,9.0,60,0.00,,,0.00,Weather View 32 v70,2013-04-24 14:28:00,
2013-04-24 10:33:00,55.2,43.2,30.04,East,99,2.0,9.0,64,0.00,,,0.00,Weather View 32 v70,2013-04-24 14:33:00,
2013-04-24 10:38:00,55.4,41.7,30.03,East,99,4.0,9.0,60,0.00,,,0.00,Weather View 32 v70,2013-04-24 14:38:00,
2013-04-24 10:43:00,55.9,41.8,30.03,East,94,5.0,9.0,59,0.00,,,0.00,Weather View 32 v70,2013-04-24 14:43:00,
2013-04-24 10:48:00,56.6,42.8,30.02,NNE,29,1.0,9.0,60,0.00,,,0.00,Weather View 32 v70,2013-04-24 14:48:00,
2013-04-24 10:53:00,56.6,42.8,30.02,SE,138,3.0,9.0,60,0.00,,,0.00,Weather View 32 v70,2013-04-24 14:53:00,
2013-04-24 10:58:00,57.3,42.6,30.02,SE,130,7.0,9.0,58,0.00,,,0.00,Weather View 32 v70,2013-04-24 14:58:00,
2013-04-24 11:03:00,57.3,42.6,30.01,East,85,2.0,9.0,58,0.00,,,0.00,Weather View 32 v70,2013-04-24 15:03:00,
2013-04-24 11:10:00,57.0,41.9,30.01,SSE,153,5.0,9.0,57,0.00,,,0.00,Weather View 32 v70,2013-04-24 15:10:00,
2013-04-24 11:15:00,57.3,43.1,30.01,SE,125,3.0,9.0,59,0.00,,,0.00,Weather View 32 v70,2013-04-24 15:15:00,
2013-04-24 11:20:00,57.9,42.7,30.01,ESE,107,4.0,9.0,57,0.00,,,0.00,Weather View 32 v70,2013-04-24 15:20:00,
2013-04-24 11:25:00,57.5,43.7,30.01,East,101,3.0,9.0,60,0.00,,,0.00,Weather View 32 v70,2013-04-24 15:25:00,
2013-04-24 11:31:00,58.6,43.4,30.00,SE,136,6.0,9.0,57,0.00,,,0.00,Weather View 32 v70,2013-04-24 15:31:00,
2013-04-24 11:36:00,59.5,44.2,29.99,SSE,151,2.0,11.0,57,0.00,,,0.00,Weather View 32 v70,2013-04-24 15:36:00,
2013-04-24 11:41:00,59.3,43.6,29.99,SE,128,6.0,12.0,56,0.00,,,0.00,Weather View 32 v70,2013-04-24 15:41:00,
2013-04-24 11:46:00,59.5,43.3,29.98,NE,53,2.0,12.0,55,0.00,,,0.00,Weather View 32 v70,2013-04-24 15:46:00,
2013-04-24 11:51:00,59.7,43.0,29.98,SE,126,5.0,12.0,54,0.00,,,0.00,Weather View 32 v70,2013-04-24 15:51:00,
2013-04-24 11:56:00,59.9,42.7,29.96,SSE,150,5.0,13.0,53,0.00,,,0.00,Weather View 32 v70,2013-04-24 15:56:00,
2013-04-24 12:01:00,60.4,43.2,29.96,East,81,9.0,13.0,53,0.00,,,0.00,Weather View 32 v70,2013-04-24 16:01:00,
2013-04-24 12:06:00,60.4,43.2,29.95,SE,145,7.0,13.0,53,0.00,,,0.00,Weather View 32 v70,2013-04-24 16:06:00,
2013-04-24 12:11:00,60.6,42.8,29.95,SSE,164,5.0,14.0,52,0.00,,,0.00,Weather View 32 v70,2013-04-24 16:11:00,
2013-04-24 12:16:00,60.6,43.3,29.94,ESE,104,5.0,14.0,53,0.00,,,0.00,Weather View 32 v70,2013-04-24 16:16:00,
2013-04-24 12:21:00,60.9,43.6,29.94,South,170,5.0,14.0,53,0.00,,,0.00,Weather View 32 v70,2013-04-24 16:21:00,
2013-04-24 12:27:00,60.9,43.6,29.94,SE,132,5.0,14.0,53,0.00,,,0.00,Weather View 32 v70,2013-04-24 16:27:00,
2013-04-24 12:32:00,61.3,43.5,29.93,East,90,4.0,14.0,52,0.00,,,0.00,Weather View 32 v70,2013-04-24 16:32:00,
2013-04-24 12:37:00,61.7,43.9,29.93,ESE,116,6.0,14.0,52,0.00,,,0.00,Weather View 32 v70,2013-04-24 16:37:00,
2013-04-24 12:42:00,62.4,43.5,29.92,SE,138,7.0,14.0,50,0.00,,,0.00,Weather View 32 v70,2013-04-24 16:42:00,
2013-04-24 12:47:00,62.4,43.5,29.92,SE,130,4.0,14.0,50,0.00,,,0.00,Weather View 32 v70,2013-04-24 16:47:00,
2013-04-24 12:52:00,62.2,43.8,29.91,SE,146,7.0,14.0,51,0.00,,,0.00,Weather View 32 v70,2013-04-24 16:52:00,
2013-04-24 12:57:00,62.4,44.5,29.91,SE,136,8.0,14.0,52,0.00,,,0.00,Weather View 32 v70,2013-04-24 16:57:00,
2013-04-24 13:02:00,62.7,43.2,29.90,SE,140,9.0,14.0,49,0.00,,,0.00,Weather View 32 v70,2013-04-24 17:02:00,
2013-04-24 13:08:00,63.3,43.8,29.89,East,92,5.0,14.0,49,0.00,,,0.00,Weather View 32 v70,2013-04-24 17:08:00,
2013-04-24 13:13:00,63.8,44.8,29.89,SE,138,5.0,14.0,50,0.00,,,0.00,Weather View 32 v70,2013-04-24 17:13:00,
2013-04-24 13:18:00,64.4,45.3,29.88,South,176,5.0,14.0,50,0.00,,,0.00,Weather View 32 v70,2013-04-24 17:18:00,
2013-04-24 13:23:00,65.3,45.6,29.87,South,170,4.0,14.0,49,0.00,,,0.00,Weather View 32 v70,2013-04-24 17:23:00,
2013-04-24 13:28:00,65.4,44.0,29.86,SE,146,5.0,14.0,46,0.00,,,0.00,Weather View 32 v70,2013-04-24 17:28:00,
2013-04-24 13:33:00,65.3,44.5,29.86,ESE,114,10.0,14.0,47,0.00,,,0.00,Weather View 32 v70,2013-04-24 17:33:00,
2013-04-24 13:38:00,65.4,44.0,29.86,SE,126,5.0,13.0,46,0.00,,,0.00,Weather View 32 v70,2013-04-24 17:38:00,
2013-04-24 13:43:00,65.8,44.4,29.86,SW,214,5.0,14.0,46,0.00,,,0.00,Weather View 32 v70,2013-04-24 17:43:00,
2013-04-24 13:48:00,65.6,43.0,29.86,SSE,160,6.0,15.0,44,0.00,,,0.00,Weather View 32 v70,2013-04-24 17:48:00,
2013-04-24 13:53:00,65.6,43.0,29.86,South,185,4.0,15.0,44,0.00,,,0.00,Weather View 32 v70,2013-04-24 17:53:00,
2013-04-24 14:00:00,65.6,42.4,29.86,ESE,106,5.0,15.0,43,0.00,,,0.00,Weather View 32 v70,2013-04-24 18:00:00,
2013-04-24 14:04:00,65.8,43.2,29.86,ESE,118,4.0,15.0,44,0.00,,,0.00,Weather View 32 v70,2013-04-24 18:04:00,
2013-04-24 14:10:00,66.2,44.2,29.85,South,173,4.0,15.0,45,0.00,,,0.00,Weather View 32 v70,2013-04-24 18:10:00,
2013-04-24 14:15:00,66.2,43.6,29.85,SSE,162,6.0,15.0,44,0.00,,,0.00,Weather View 32 v70,2013-04-24 18:15:00,
2013-04-24 14:20:00,66.7,45.2,29.85,ESE,118,5.0,15.0,46,0.00,,,0.00,Weather View 32 v70,2013-04-24 18:20:00,
2013-04-24 14:25:00,66.5,43.9,29.85,South,178,4.0,15.0,44,0.00,,,0.00,Weather View 32 v70,2013-04-24 18:25:00,
2013-04-24 14:30:00,67.4,44.1,29.85,South,182,3.0,15.0,43,0.00,,,0.00,Weather View 32 v70,2013-04-24 18:30:00,
2013-04-24 14:35:00,68.3,44.3,29.85,South,178,4.0,15.0,42,0.00,,,0.00,Weather View 32 v70,2013-04-24 18:35:00,
2013-04-24 14:40:00,69.2,45.1,29.84,SE,145,5.0,15.0,42,0.00,,,0.00,Weather View 32 v70,2013-04-24 18:40:00,
2013-04-24 14:45:00,68.5,44.4,29.83,SE,131,6.0,15.0,42,0.00,,,0.00,Weather View 32 v70,2013-04-24 18:45:00,
2013-04-24 14:50:00,69.2,46.3,29.83,South,186,3.0,15.0,44,0.00,,,0.00,Weather View 32 v70,2013-04-24 18:50:00,
2013-04-24 14:56:00,69.0,44.3,29.83,South,175,8.0,15.0,41,0.00,,,0.00,Weather View 32 v70,2013-04-24 18:56:00,
2013-04-24 15:01:00,69.8,46.8,29.82,SE,146,3.0,15.0,44,0.00,,,0.00,Weather View 32 v70,2013-04-24 19:01:00,
2013-04-24 15:06:00,70.5,45.6,29.81,SSW,194,4.0,15.0,41,0.00,,,0.00,Weather View 32 v70,2013-04-24 19:06:00,
2013-04-24 15:11:00,70.1,45.9,29.81,SSE,162,6.0,15.0,42,0.00,,,0.00,Weather View 32 v70,2013-04-24 19:11:00,
2013-04-24 15:16:00,69.9,45.1,29.81,SSE,164,5.0,15.0,41,0.00,,,0.00,Weather View 32 v70,2013-04-24 19:16:00,
2013-04-24 15:21:00,70.3,46.1,29.80,SSE,163,4.0,15.0,42,0.00,,,0.00,Weather View 32 v70,2013-04-24 19:21:00,
2013-04-24 15:26:00,70.8,46.5,29.79,SE,140,5.0,15.0,42,0.00,,,0.00,Weather View 32 v70,2013-04-24 19:26:00,
2013-04-24 15:31:00,71.0,46.0,29.79,South,176,5.0,15.0,41,0.00,,,0.00,Weather View 32 v70,2013-04-24 19:31:00,
2013-04-24 15:36:00,71.2,45.6,29.79,ESE,109,5.0,15.0,40,0.00,,,0.00,Weather View 32 v70,2013-04-24 19:36:00,
2013-04-24 15:41:00,71.2,46.2,29.79,SSE,148,3.0,15.0,41,0.00,,,0.00,Weather View 32 v70,2013-04-24 19:41:00,
2013-04-24 15:46:00,71.2,46.2,29.78,SE,126,2.0,14.0,41,0.00,,,0.00,Weather View 32 v70,2013-04-24 19:46:00,
2013-04-24 15:51:00,71.6,46.6,29.78,ENE,59,3.0,14.0,41,0.00,,,0.00,Weather View 32 v70,2013-04-24 19:51:00,
2013-04-24 15:57:00,72.1,45.7,29.78,SSW,201,7.0,13.0,39,0.00,,,0.00,Weather View 32 v70,2013-04-24 19:57:00,
2013-04-24 16:02:00,72.1,45.7,29.79,South,188,3.0,13.0,39,0.00,,,0.00,Weather View 32 v70,2013-04-24 20:02:00,
2013-04-24 16:07:00,72.1,45.7,29.78,SSE,151,3.0,13.0,39,0.00,,,0.00,Weather View 32 v70,2013-04-24 20:07:00,
2013-04-24 16:12:00,72.3,47.2,29.78,South,174,3.0,13.0,41,0.00,,,0.00,Weather View 32 v70,2013-04-24 20:12:00,
2013-04-24 16:17:00,72.3,45.9,29.78,SSW,201,4.0,14.0,39,0.00,,,0.00,Weather View 32 v70,2013-04-24 20:17:00,
2013-04-24 16:22:00,72.5,46.7,29.78,SE,126,6.0,14.0,40,0.00,,,0.00,Weather View 32 v70,2013-04-24 20:22:00,
2013-04-24 16:27:00,72.6,46.8,29.78,SSE,154,3.0,14.0,40,0.00,,,0.00,Weather View 32 v70,2013-04-24 20:27:00,
2013-04-24 16:32:00,72.5,46.7,29.78,SSE,148,5.0,14.0,40,0.00,,,0.00,Weather View 32 v70,2013-04-24 20:32:00,
2013-04-24 16:38:00,72.3,45.9,29.78,ESE,115,4.0,14.0,39,0.00,,,0.00,Weather View 32 v70,2013-04-24 20:38:00,
2013-04-24 16:43:00,72.5,47.4,29.78,SE,135,6.0,14.0,41,0.00,,,0.00,Weather View 32 v70,2013-04-24 20:43:00,
2013-04-24 16:48:00,73.2,47.4,29.77,SE,126,2.0,14.0,40,0.00,,,0.00,Weather View 32 v70,2013-04-24 20:48:00,
2013-04-24 16:53:00,73.4,47.5,29.77,SSE,157,8.0,14.0,40,0.00,,,0.00,Weather View 32 v70,2013-04-24 20:53:00,
2013-04-24 16:58:00,72.8,46.3,29.77,SSE,155,3.0,14.0,39,0.00,,,0.00,Weather View 32 v70,2013-04-24 20:58:00,
2013-04-24 17:03:00,72.5,46.7,29.77,SE,131,5.0,14.0,40,0.00,,,0.00,Weather View 32 v70,2013-04-24 21:03:00,
2013-04-24 17:08:00,72.3,46.6,29.77,SSE,160,6.0,14.0,40,0.00,,,0.00,Weather View 32 v70,2013-04-24 21:08:00,
2013-04-24 17:13:00,72.1,46.4,29.77,ESE,120,4.0,14.0,40,0.00,,,0.00,Weather View 32 v70,2013-04-24 21:13:00,
2013-04-24 17:18:00,72.1,46.4,29.76,SSE,159,8.0,14.0,40,0.00,,,0.00,Weather View 32 v70,2013-04-24 21:18:00,
2013-04-24 17:23:00,72.6,47.5,29.76,East,92,3.0,14.0,41,0.00,,,0.00,Weather View 32 v70,2013-04-24 21:23:00,
2013-04-24 17:28:00,72.5,47.4,29.75,ESE,110,8.0,14.0,41,0.00,,,0.00,Weather View 32 v70,2013-04-24 21:28:00,
2013-04-24 17:33:00,73.0,47.8,29.75,SSE,152,5.0,14.0,41,0.00,,,0.00,Weather View 32 v70,2013-04-24 21:33:00,
2013-04-24 17:38:00,72.5,47.4,29.75,SE,134,6.0,14.0,41,0.00,,,0.00,Weather View 32 v70,2013-04-24 21:38:00,
2013-04-24 17:43:00,72.6,47.5,29.76,ESE,114,5.0,14.0,41,0.00,,,0.00,Weather View 32 v70,2013-04-24 21:43:00,
2013-04-24 17:48:00,72.6,47.5,29.75,SE,143,5.0,14.0,41,0.00,,,0.00,Weather View 32 v70,2013-04-24 21:48:00,
2013-04-24 17:53:00,72.6,48.1,29.75,South,174,5.0,14.0,42,0.00,,,0.00,Weather View 32 v70,2013-04-24 21:53:00,
2013-04-24 17:58:00,73.0,48.5,29.75,SSE,163,3.0,13.0,42,0.00,,,0.00,Weather View 32 v70,2013-04-24 21:58:00,
2013-04-24 18:03:00,72.6,47.5,29.75,SE,137,4.0,13.0,41,0.00,,,0.00,Weather View 32 v70,2013-04-24 22:03:00,
2013-04-24 18:08:00,72.6,47.5,29.75,SSE,156,5.0,13.0,41,0.00,,,0.00,Weather View 32 v70,2013-04-24 22:08:00,
2013-04-24 18:13:00,72.6,48.1,29.75,ESE,117,6.0,13.0,42,0.00,,,0.00,Weather View 32 v70,2013-04-24 22:13:00,
2013-04-24 18:18:00,72.5,47.4,29.74,WSW,239,6.0,13.0,41,0.00,,,0.00,Weather View 32 v70,2013-04-24 22:18:00,
2013-04-24 18:23:00,72.5,47.4,29.75,South,170,4.0,12.0,41,0.00,,,0.00,Weather View 32 v70,2013-04-24 22:23:00,
2013-04-24 18:28:00,72.3,46.6,29.74,SSW,197,5.0,12.0,40,0.00,,,0.00,Weather View 32 v70,2013-04-24 22:28:00,
2013-04-24 18:33:00,72.3,46.6,29.75,South,191,3.0,12.0,40,0.00,,,0.00,Weather View 32 v70,2013-04-24 22:33:00,
2013-04-24 18:38:00,72.3,46.6,29.74,SSE,160,3.0,11.0,40,0.00,,,0.00,Weather View 32 v70,2013-04-24 22:38:00,
2013-04-24 18:43:00,72.3,47.2,29.75,SW,231,3.0,11.0,41,0.00,,,0.00,Weather View 32 v70,2013-04-24 22:43:00,
2013-04-24 18:48:00,72.1,47.0,29.74,South,179,4.0,11.0,41,0.00,,,0.00,Weather View 32 v70,2013-04-24 22:48:00,
2013-04-24 18:53:00,71.9,46.9,29.75,SSE,164,4.0,11.0,41,0.00,,,0.00,Weather View 32 v70,2013-04-24 22:53:00,
2013-04-24 18:58:00,71.9,46.9,29.75,SSE,163,2.0,11.0,41,0.00,,,0.00,Weather View 32 v70,2013-04-24 22:58:00,
2013-04-24 19:03:00,71.9,46.9,29.75,East,90,4.0,11.0,41,0.00,,,0.00,Weather View 32 v70,2013-04-24 23:03:00,
2013-04-24 19:08:00,71.6,47.2,29.74,SE,142,3.0,11.0,42,0.00,,,0.00,Weather View 32 v70,2013-04-24 23:08:00,
2013-04-24 19:13:00,71.6,47.2,29.74,SSE,157,4.0,11.0,42,0.00,,,0.00,Weather View 32 v70,2013-04-24 23:13:00,
2013-04-24 19:18:00,71.4,47.0,29.74,SSE,165,2.0,11.0,42,0.00,,,0.00,Weather View 32 v70,2013-04-24 23:18:00,
2013-04-24 19:23:00,71.2,46.9,29.73,SE,135,4.0,11.0,42,0.00,,,0.00,Weather View 32 v70,2013-04-24 23:23:00,
2013-04-24 19:28:00,71.2,47.5,29.74,SSE,159,6.0,11.0,43,0.00,,,0.00,Weather View 32 v70,2013-04-24 23:28:00,
2013-04-24 19:33:00,71.2,47.5,29.73,ESE,114,7.0,11.0,43,0.00,,,0.00,Weather View 32 v70,2013-04-24 23:33:00,
2013-04-24 19:38:00,71.0,47.3,29.74,SE,136,5.0,11.0,43,0.00,,,0.00,Weather View 32 v70,2013-04-24 23:38:00,
2013-04-24 19:43:00,70.8,47.1,29.74,SSE,151,8.0,15.0,43,0.00,,,0.00,Weather View 32 v70,2013-04-24 23:43:00,
2013-04-24 19:48:00,70.8,47.7,29.75,South,190,4.0,15.0,44,0.00,,,0.00,Weather View 32 v70,2013-04-24 23:48:00,
2013-04-24 19:53:00,70.8,48.3,29.76,West,265,5.0,15.0,45,0.00,,,0.00,Weather View 32 v70,2013-04-24 23:53:00,
2013-04-24 19:58:00,70.7,48.3,29.76,SSW,205,6.0,15.0,45,0.00,,,0.00,Weather View 32 v70,2013-04-24 23:58:00,
2013-04-24 20:03:00,70.3,47.9,29.76,SW,226,1.0,15.0,45,0.00,,,0.00,Weather View 32 v70,2013-04-25 00:03:00,
2013-04-24 20:08:00,70.3,47.9,29.77,NNW,340,2.0,15.0,45,0.00,,,0.00,Weather View 32 v70,2013-04-25 00:08:00,
2013-04-24 20:13:00,70.1,47.7,29.77,SSE,156,4.0,16.0,45,0.00,,,0.00,Weather View 32 v70,2013-04-25 00:13:00,
2013-04-24 20:18:00,70.1,47.7,29.77,NW,313,2.0,16.0,45,0.00,,,0.00,Weather View 32 v70,2013-04-25 00:18:00,
2013-04-24 20:23:00,69.9,48.1,29.78,SW,229,3.0,16.0,46,0.00,,,0.00,Weather View 32 v70,2013-04-25 00:23:00,
2013-04-24 20:28:00,69.9,48.1,29.78,SSE,162,5.0,16.0,46,0.00,,,0.00,Weather View 32 v70,2013-04-25 00:28:00,
2013-04-24 20:34:00,69.8,48.6,29.78,SSE,154,4.0,16.0,47,0.00,,,0.00,Weather View 32 v70,2013-04-25 00:34:00,
2013-04-24 20:39:00,69.4,48.2,29.78,SSW,203,2.0,16.0,47,0.00,,,0.00,Weather View 32 v70,2013-04-25 00:39:00,
2013-04-24 20:44:00,69.2,48.1,29.78,South,178,5.0,16.0,47,0.00,,,0.00,Weather View 32 v70,2013-04-25 00:44:00,
2013-04-24 20:49:00,68.9,48.3,29.78,SE,126,3.0,16.0,48,0.00,,,0.00,Weather View 32 v70,2013-04-25 00:49:00,
2013-04-24 20:54:00,68.7,48.7,29.78,SE,124,4.0,16.0,49,0.00,,,0.00,Weather View 32 v70,2013-04-25 00:54:00,
2013-04-24 20:59:00,68.3,48.3,29.78,SSE,166,3.0,16.0,49,0.00,,,0.00,Weather View 32 v70,2013-04-25 00:59:00,
2013-04-24 21:04:00,68.1,48.2,29.78,SSE,165,10.0,16.0,49,0.00,,,0.00,Weather View 32 v70,2013-04-25 01:04:00,
2013-04-24 21:09:00,68.0,48.6,29.78,ESE,121,6.0,16.0,50,0.00,,,0.00,Weather View 32 v70,2013-04-25 01:09:00,
2013-04-24 21:14:00,67.6,48.8,29.78,South,177,5.0,15.0,51,0.00,,,0.00,Weather View 32 v70,2013-04-25 01:14:00,
2013-04-24 21:19:00,67.1,48.3,29.78,South,171,4.0,14.0,51,0.00,,,0.00,Weather View 32 v70,2013-04-25 01:19:00,
2013-04-24 21:24:00,66.9,48.7,29.78,South,176,9.0,13.0,52,0.00,,,0.00,Weather View 32 v70,2013-04-25 01:24:00,
2013-04-24 21:29:00,66.7,48.5,29.78,South,170,7.0,13.0,52,0.00,,,0.00,Weather View 32 v70,2013-04-25 01:29:00,
2013-04-24 21:34:00,66.5,48.8,29.78,SE,138,4.0,13.0,53,0.00,,,0.00,Weather View 32 v70,2013-04-25 01:34:00,
2013-04-24 21:39:00,66.2,49.0,29.78,South,181,3.0,13.0,54,0.00,,,0.00,Weather View 32 v70,2013-04-25 01:39:00,
2013-04-24 21:44:00,66.0,48.8,29.79,SW,224,4.0,13.0,54,0.00,,,0.00,Weather View 32 v70,2013-04-25 01:44:00,
2013-04-24 21:49:00,65.8,49.1,29.79,SSE,158,2.0,11.0,55,0.00,,,0.00,Weather View 32 v70,2013-04-25 01:49:00,
2013-04-24 21:54:00,65.4,48.8,29.79,SW,226,3.0,11.0,55,0.00,,,0.00,Weather View 32 v70,2013-04-25 01:54:00,
2013-04-24 21:59:00,65.4,49.3,29.80,West,265,2.0,11.0,56,0.00,,,0.00,Weather View 32 v70,2013-04-25 01:59:00,
2013-04-24 22:04:00,65.4,49.3,29.80,South,178,9.0,11.0,56,0.00,,,0.00,Weather View 32 v70,2013-04-25 02:04:00,
2013-04-24 22:09:00,65.3,49.2,29.80,South,184,5.0,12.0,56,0.00,,,0.00,Weather View 32 v70,2013-04-25 02:09:00,
2013-04-24 22:14:00,65.3,49.6,29.81,SSE,162,4.0,12.0,57,0.00,,,0.00,Weather View 32 v70,2013-04-25 02:14:00,
2013-04-24 22:19:00,64.9,49.3,29.80,ENE,76,3.0,13.0,57,0.00,,,0.00,Weather View 32 v70,2013-04-25 02:19:00,
2013-04-24 22:24:00,64.7,49.1,29.80,SSW,192,4.0,13.0,57,0.00,,,0.00,Weather View 32 v70,2013-04-25 02:24:00,
2013-04-24 22:29:00,64.4,49.3,29.80,SE,139,3.0,13.0,58,0.00,,,0.00,Weather View 32 v70,2013-04-25 02:29:00,
2013-04-24 22:34:00,64.0,49.3,29.79,SSE,158,3.0,13.0,59,0.00,,,0.00,Weather View 32 v70,2013-04-25 02:34:00,
2013-04-24 22:39:00,63.6,49.0,29.79,SE,139,3.0,13.0,59,0.00,,,0.00,Weather View 32 v70,2013-04-25 02:39:00,
2013-04-24 22:44:00,63.6,49.4,29.80,SSE,168,4.0,13.0,60,0.00,,,0.00,Weather View 32 v70,2013-04-25 02:44:00,
2013-04-24 22:49:00,63.5,49.3,29.80,South,172,3.0,13.0,60,0.00,,,0.00,Weather View 32 v70,2013-04-25 02:49:00,
2013-04-24 22:54:00,63.5,49.8,29.79,ESE,123,3.0,13.0,61,0.00,,,0.00,Weather View 32 v70,2013-04-25 02:54:00,
2013-04-24 22:59:00,63.1,49.0,29.79,SE,145,3.0,13.0,60,0.00,,,0.00,Weather View 32 v70,2013-04-25 02:59:00,
2013-04-24 23:04:00,62.9,49.2,29.80,South,178,3.0,13.0,61,0.00,,,0.00,Weather View 32 v70,2013-04-25 03:04:00,
2013-04-24 23:09:00,62.7,49.0,29.80,SE,140,3.0,13.0,61,0.00,,,0.00,Weather View 32 v70,2013-04-25 03:09:00,
2013-04-24 23:14:00,62.6,49.4,29.80,SSE,162,4.0,13.0,62,0.00,,,0.00,Weather View 32 v70,2013-04-25 03:14:00,
2013-04-24 23:19:00,62.6,49.4,29.80,South,188,3.0,13.0,62,0.00,,,0.00,Weather View 32 v70,2013-04-25 03:19:00,
2013-04-24 23:24:00,62.2,49.4,29.80,SSE,164,3.0,9.0,63,0.00,,,0.00,Weather View 32 v70,2013-04-25 03:24:00,
2013-04-24 23:29:00,62.2,49.4,29.81,SSW,198,2.0,9.0,63,0.00,,,0.00,Weather View 32 v70,2013-04-25 03:29:00,
2013-04-24 23:34:00,62.0,49.2,29.80,SSW,209,2.0,9.0,63,0.00,,,0.00,Weather View 32 v70,2013-04-25 03:34:00,
2013-04-24 23:39:00,62.2,49.4,29.80,South,181,3.0,9.0,63,0.00,,,0.00,Weather View 32 v70,2013-04-25 03:39:00,
2013-04-24 23:44:00,62.2,49.4,29.81,SSE,166,1.0,9.0,63,0.00,,,0.00,Weather View 32 v70,2013-04-25 03:44:00,
2013-04-24 23:49:00,62.0,49.7,29.81,SSE,157,4.0,9.0,64,0.00,,,0.00,Weather View 32 v70,2013-04-25 03:49:00,
2013-04-24 23:54:00,62.0,49.7,29.81,South,169,4.0,9.0,64,0.00,,,0.00,Weather View 32 v70,2013-04-25 03:54:00,
2013-04-24 23:59:00,62.0,49.7,29.84,WNW,294,4.0,8.0,64,0.00,,,0.00,Weather View 32 v70,2013-04-25 03:59:00,